Regional Weather Roundup
Issued by NWS Wakefield, VA

Home | Current Version | Previous Version | Text Only | Print | Product List | Glossary On
Versions: 1 2 3 4 5 6 7 8 9 10 11 12 13 14 15 16 17 18 19 20 21 22 23 24 25 26 27 28 29 30 31 32 33 34 35 36 37 38 39 40 41 42 43 44 45 46 47 48 49 50
000
ASUS41 KAKQ 311312
RWRAKQ

REGIONAL WEATHER ROUNDUP
NATIONAL WEATHER SERVICE WAKEFIELD VA
900 AM EDT MON AUG 31 2015

Note: "fair" indicates few or no clouds below 12,000 feet with no
significant weather and/or obstructions to visibility. * = Denotes
station may not report precipitation (e.g., rain,snow,etc.),
thunder or fog.

VAZ042-051-052>054-056-311400-
NORTHERN VIRGINIA

CITY           SKY/WX    TMP DP  RH WIND       PRES   REMARKS
WASH NATIONAL  CLOUDY    78  67  68 S6        30.09F
DULLES         CLOUDY    74  67  78 CALM      30.09F
FORT BELVOIR   PTSUNNY   75  68  79 CALM      30.10R
QUANTICO       CLOUDY    75  65  70 MISG      30.11R
FREDERICKSBRG* CLOUDY    78  68  72 CALM      30.09S
STAFFORD*      CLOUDY    75  67  76 CALM      30.14R
WARRENTON      PTSUNNY   75  70  83 CALM      30.10S
CULPEPER*      CLOUDY    73  68  84 S3        30.11S
MANASSAS*      MOSUNNY   73  70  88 S3        30.10S
LEESBURG*      CLOUDY    73  72  94 W3        30.11S
WINCHESTER     CLOUDY    77  64  65 SW5       30.11S
FRONT ROYAL*   PTSUNNY   73  64  73 CALM      30.11R
LURAY*         FAIR      72  64  78 CALM      30.13S
$$

VAZ048-049-060>072-079>083-311400-
CENTRAL AND SOUTH CENTRAL VIRGINIA

CITY           SKY/WX    TMP DP  RH WIND       PRES   REMARKS
RICHMOND       CLOUDY    77  67  71 S7        30.12R
CHESTERFIELD*  FAIR      73  59  60 S6        30.14R
PETERSBURG*    CLOUDY    73  71  93 S5        30.14R
HANOVER        CLOUDY    76  67  73 S7        30.13S
TAPPAHANNOCK*  CLOUDY    76  65  67 CALM      30.12S
QUINTON*       CLOUDY    73  69  86 SW5       30.12S
CHARLOTTSVILLE CLOUDY    72  67  84 S5        30.12R
GORDONSVILLE*  FAIR      71  69  95 CALM      30.11S
ORANGE*        LGT RAIN  72  70  94 CALM      30.13S
LOUISA*        CLOUDY    73  66  78 SW3       30.11S
BUMPASS*       FAIR      73  66  78 MISG      30.11S
FARMVILLE*     CLOUDY    71  71 100 CALM      30.12S
CREWE*         PTSUNNY  N/A N/A N/A SW3       30.14R
FORT PICKETT*  PTSUNNY   70  67  90 S5        30.14S
CHASE CITY*    CLOUDY    70  70 100 CALM      30.13F
CLARKSVILLE*   CLOUDY    68  68 100 E3        30.13S
SOUTH HILL*    CLOUDY    67  67  99 CALM      30.20S
LAWRENCEVILLE* CLOUDY    68  68 100 CALM      30.14S
EMPORIA*       LGT RAIN  68  68 100 CALM      30.15S
$$

VAZ088>098-311400-
SOUTHEAST VIRGINIA

CITY           SKY/WX    TMP DP  RH WIND       PRES   REMARKS
NORFOLK        CLOUDY    80  65  59 SW5       30.12S
VIRGINIA BEACH CLOUDY    79  69  71 CALM      30.12R
NORFOLK NAVAL  CLOUDY    79  68  69 SW5       30.14R
WEST POINT*    CLOUDY    78  67  69 S6        30.13S
SALUDA*        CLOUDY    74  69  83 CALM      30.11S
NEWPORT NEWS   CLOUDY    77  67  71 SW6       30.12S
LANGLEY AFB    CLOUDY    78  68  72 SW6       30.11S
FORT EUSTIS    CLOUDY    77  68  74 SW5       30.11R
WILLIAMSBURG*  CLOUDY    79  70  73 CALM      30.13S
HR EXEC AP*      N/A     75  68  78 SW3       30.15S
FRANKLIN*      DRIZZLE   73  68  84 CALM      30.14S
WAKEFIELD      CLOUDY    74  66  76 SW5       30.13S
$$

VAZ020-022-025-037-045-311400-
WEST CENTRAL AND SOUTHWEST VIRGINIA

CITY           SKY/WX    TMP DP  RH WIND       PRES   REMARKS
STAUNTON*      PTSUNNY   73  65  75 CALM      30.17R
WAYNESBORO*    CLOUDY    71  62  72 CALM      30.15S
HOT SPRINGS VA CLOUDY    66  57  74 W3        30.26R
LYNCHBURG      CLOUDY    68  66  93 CALM      30.15S
DANVILLE       LGT RAIN  71  67  87 CALM      30.14S
SOUTH BOSTON*  CLOUDY    68  66  95 CALM      30.14R
MARTINSVILLE   CLOUDY    70  70 100 CALM      30.17S
ROANOKE        PTSUNNY   70  65  84 CALM      30.17S
BLACKSBURG     CLOUDY    67  65  94 CALM      30.22S
DUBLIN*        CLOUDY    67  67 100 CALM      30.21S
MARION*        MOSUNNY   69  62  80 CALM      30.23S
HILLSVILLE*    CLOUDY    65  63  94 CALM      30.20F
RICHLANDS*     CLOUDY    65  36  34 CALM      30.21S
WISE*          PTSUNNY   66  64  94 W3        30.23S
ABINGDON*      MOSUNNY   68  63  83 CALM      30.20R
$$

MDZ021>025-VAZ099-100-311400-
SOUTHERN MARYLAND AND THE DELMARVA PENINSULA

CITY           SKY/WX    TMP DP  RH WIND       PRES   REMARKS
PATUXENT RIVER CLOUDY    76  67  73 W6        30.09S
BAY BRIDGE APT   N/A     77  64  65 SW3       30.08S
LEONARDTOWN    CLOUDY    77  64  65 CALM      30.11S
DOVER          CLOUDY    76  70  81 SW8       30.06F
GEORGETOWN     CLOUDY    77  69  76 SW8       30.09S
EASTON         NOT AVBL
CAMBRIDGE      CLOUDY    77  68  73 CALM      30.08S
SALISBURY      CLOUDY    75  71  87 SW7       30.09S
OCEAN CITY     CLOUDY    77  71  82 SW9       30.10R
WALLOPS ISLAND CLOUDY    78  73  84 SW6       30.11S
ACCOMACK*      CLOUDY    73  64  73 SW3       30.10F
$$

NCZ012>017-030>032-311400-
NORTH CENTRAL AND EASTERN NORTH CAROLINA

CITY           SKY/WX    TMP DP  RH WIND       PRES   REMARKS
ROANOKE RAPIDS RAIN      68  68 100 CALM      30.14F
RALEIGH        LGT RAIN  68  67  96 E7        30.13S FOG
ELIZABETH CITY CLOUDY    77  69  76 CALM      30.13S
AHOSKIE*       RAIN      69  67  95 CALM      30.14F
EDENTON*       CLOUDY    73  69  87 CALM      30.13R
CURRITUCK*     CLOUDY    75  67  77 CALM      30.14S
KILL DEVIL HLS CLOUDY    79  73  81 CALM      30.12S
MANTEO         CLOUDY    76  71  83 CALM      30.13S
CAPE HATTERAS  CLOUDY    79  73  82 E5        30.12S
TARBORO*       RAIN      70  68  94 NE3       30.14S
GOLDSBORO      LGT RAIN  72  68  88 CALM      30.11R
WASHINGTON     CLOUDY    72  68  87 NE5       30.11S
GREENVILLE     RAIN      72  70  94 E5        30.13S
NEW BERN       CLOUDY    78  71  79 E5        30.12R
WILMINGTON     CLOUDY    78  74  87 SE8       30.08R
$$

VAZ048-311400-
ELSEWHERE

CITY           SKY/WX    TMP DP  RH WIND       PRES   REMARKS
HARRISBURG PA  CLOUDY    76  67  73 CALM      30.08R
BALTIMORE      CLOUDY    78  67  68 W6        30.08S
ANNAPOLIS      CLOUDY    77  65  66 VRB3      30.08S
ANDREWS AFB    PTSUNNY   76  67  71 SW8       30.09S
PHILADELPHIA   CLOUDY    78  68  71 SW7       30.07S
HENDERSON NC   RAIN      66  64  92 NE5       30.13F
GREENSBORO     LGT RAIN  68  68 100 E7        30.13S FOG
ROCKY MOUNT    LGT RAIN  70  68  93 NE8       30.12S FOG
$$

VAZ100-311400-
MARINE

STATION/POSITION TIME  TEMP    WIND        PRES    WAVE   SWELL
                       AIR SEA DIR/SP/G            HT/PER HT/PER
                 (UTC) (F)     (DEG/KT/KT) (MB)    (FT/S) (FT/S)
15NM E FENWICK I 1250   78 78  220/ 12/ 14 1018.8F   2/10   2/10
GOOSES REEF MD   1300   78 79  230/ 12/ 14 1019.7R
POTOMAC MD       1300   77 79  230/  8/ 14 1018.1R   1
STINGRAY PT      1200   78 79  270/  6/  6 1019.8R   1
JAMESTOWN VA     1300   75 80  180/  6/ 10   N/A
CHESAPEAKE LGHT  1200   77     280/  6/  7 1020.4R
CAPE HENRY BUOY  1228      79                N/A     2/10
1ST LANDING BUOY 1300      79              1019.5R   2/ 5
CAPE CHARLES BUO 1226      78                N/A     2/ 9   2/ 9
OFFSHORE WE BUOY 1211      78                N/A     3/11   3/11
64NM E OF VA BCH 1250   78 78  260/  6/  8 1019.8R   3/10   3/10
44100 DUCK FRF   1224      78                N/A     3/ 9   2/11
44056 DUCK FRF   1211      79                N/A     3/10   2/11
DIAMOND SHLS NC  1250   82 84  140/  4/  6 1020.0    3/ 9   3/ 9
CAPE LOOKOUT NC  1200   80     120/ 12/ 13 1018.9S
$$



USA.gov is the U.S. government's official web portal to all federal, state and local government web resources and services.